This demonstration page uses our WeatherBlox Daily Observations layout. Learn more.

Left ArrowRight Arrow

Hourly Observations for May 1, 2017

Temp ( °F °C ) Dew Point ( °F °C ) Humidity (%) Winds ( mph kmh ) Pressure ( in mb ) Visibility ( mi km ) Precip ( " mm )
12:52 am 00:52 Cloudy 48 8.9 38 3.3 68 68 SW 18 30 29.54 1000 10 16 0.00 0.03
1:26 am 01:26 Cloudy 46 8 37 3 71 71 SSW 24 39 29.59 1002 10 16 0.00 0.00
1:52 am 01:52 Cloudy 46 7.8 38 3.3 73 73 SW 20 31 29.54 1000 10 16 0.00 0.00
2:52 am 02:52 Cloudy 45 7.2 38 3.3 77 77 SW 17 28 29.54 1001 10 16 0.00 0.03
3:10 am 03:10 Cloudy 45 7 37 3 76 76 SW 21 33 29.59 1002 10 16 0.00 0.00
3:45 am 03:45 Cloudy with Light Rain 44 6.7 39 3.9 83 83 SW 16 26 29.59 1002 8 13 0.00 0.03
3:52 am 03:52 Cloudy with Light Rain 44 6.7 39 3.9 83 83 WSW 18 30 29.55 1001 10 16 0.00 0.03
4:52 am 04:52 Cloudy with Light Rain 43 6.1 39 3.9 86 86 SW 16 26 29.57 1001 8 13 0.00 0.03
5:52 am 05:52 Cloudy with Light Rain 42 5.6 37 2.8 82 82 WSW 21 33 29.60 1002 10 16 0.00 0.03
6:52 am 06:52 Cloudy 42 5.6 36 2.2 79 79 WSW 16 26 29.62 1003 10 16 0.00 0.03
7:52 am 07:52 Cloudy 43 6.1 36 2.2 76 76 WSW 20 31 29.64 1004 10 16 0.00 0.00
8:52 am 08:52 Cloudy 42 5.6 38 3.3 85 85 WSW 16 26 29.66 1004 8 13 0.00 0.03
9:36 am 09:36 Cloudy 44 6.7 38 3.3 79 79 WSW 21 33 29.71 1006 10 16 0.00 0.03
9:52 am 09:52 Cloudy 44 6.7 37 2.8 76 76 W 16 26 29.69 1005 10 16 0.00 0.03
10:52 am 10:52 Cloudy with Light Rain 44 6.7 39 3.9 83 83 W 21 33 29.72 1006 6 10 0.00 0.03
11:52 am 11:52 Cloudy 48 8.9 38 3.3 68 68 W 22 35 29.74 1007 10 16 0.00 0.03
12:52 pm 12:52 Cloudy 47 8.3 38 3.3 71 71 W 20 31 29.76 1008 10 16 0.00 0.03
1:52 pm 13:52 Cloudy 49 9.4 39 3.9 69 69 W 20 31 29.78 1009 10 16 0.00 0.03
2:48 pm 14:48 Cloudy 50 10 39 4 67 67 W 17 28 29.80 1009 10 16 0.00 0.00
2:52 pm 14:52 Cloudy 50 10 40 4.4 68 68 W 16 26 29.81 1010 10 16 0.00 0.00
3:52 pm 15:52 Cloudy 54 12.2 42 5.6 64 64 W 16 26 29.80 1009 10 16 0.00 0.00
4:52 pm 16:52 Cloudy 59 15 43 6.1 56 56 W 20 31 29.80 1009 10 16 0.00 0.00
5:52 pm 17:52 Mostly Sunny 61 16.1 43 6.1 52 52 W 16 26 29.81 1009 10 16 0.00 0.00
6:52 pm 18:52 Sunny 61 16.1 39 3.9 44 44 W 15 24 29.83 1010 10 16 0.00 0.00
7:52 pm 19:52 Sunny 58 14.4 38 3.3 48 48 W 9 15 29.85 1011 10 16 0.00 0.00
8:52 pm 20:52 Clear 52 11.1 38 3.3 59 59 SW 7 11 29.87 1012 10 16 0.00 0.00
9:52 pm 21:52 Clear 50 10 39 3.9 66 66 SW 8 13 29.89 1012 10 16 0.00 0.00
10:52 pm 22:52 Clear 50 10 39 3.9 66 66 SW 9 15 29.90 1013 10 16 0.00 0.00
11:52 pm 23:52 Clear 48 8.9 38 3.3 68 68 SW 9 15 29.90 1013 10 16 0.00 0.00

Powered by AerisWeather